User: anonymous
Location: Unspecified
(0.0000°N, 0.0000°E)
Time: 13:56:35
(UTC+00:00)
Language:

SES 6 - Orbit

View from above orbital plane
View from above orbital plane
View from above satellite
View from above satellite

Ground track
Ground track

The orbit data is extracted from the following two-line orbital elements,

1 39172U 13026A   14111.18898466 -.00000279  00000-0  00000+0 0  2173
2 39172 000.0217 298.0132 0002065 120.1768 178.5238 01.00270714  3220
Epoch (UTC): 21 April 2014 04:32:08
Eccentricity: 0.0002065
inclination: 0.0217°
perigee height: 35778 km
apogee height: 35795 km
right ascension of ascending node: 298.0132°
argument of perigee: 120.1768°
revolutions per day: 1.00270714
mean anomaly at epoch: 178.5238°
orbit number at epoch: 322

The dashed part of the orbit path shows where the satellite is in the earth's shadow,  

DLR